Location: Franzen
(48.6167°N, 15.3833°E)
Time: 19:48:27
(UTC+00:00)

Spot 4 - Visible Passes

Search period start: 23 July 2021 00:00
Search period end: 02 August 2021 00:00
Orbit: 704 x 722 km, 98.3° (Epoch: 23 July)

Date Brightness Start Highest point End Pass type
(mag) Time Alt. Az. Time Alt. Az. Time Alt. Az.
23 Jul 5.1 20:59:06 19° ESE 21:01:35 30° ENE 21:05:45 10° N visible
23 Jul 4.7 22:38:14 33° SW 22:39:26 39° W 22:43:57 10° NNW visible
24 Jul 6.1 20:08:34 10° ENE 20:10:27 12° NE 20:12:19 10° NNE visible
24 Jul 3.9 21:45:55 41° SSE 21:47:34 73° ENE 21:52:23 10° N visible
24 Jul 5.8 23:25:02 15° WSW 23:26:05 16° W 23:28:57 10° NW visible
25 Jul 5.2 20:53:36 18° ESE 20:56:06 27° ENE 21:00:07 10° N visible
25 Jul 4.5 22:32:44 37° SW 22:33:51 44° W 22:38:28 10° NNW visible
26 Jul 6.2 20:03:42 10° ENE 20:05:00 11° NE 20:06:18 10° NE visible
26 Jul 4.0 21:40:25 40° SE 21:42:02 65° ENE 21:46:50 10° N visible
26 Jul 5.7 23:19:32 17° WSW 23:20:28 17° W 23:23:40 10° NW visible
27 Jul 5.4 20:48:07 16° ESE 20:50:36 25° ENE 20:54:29 10° N visible
27 Jul 4.3 22:27:14 41° SW 22:28:17 49° W 22:32:59 10° NNW visible
28 Jul 4.1 21:34:56 39° SE 21:36:30 58° ENE 21:41:15 10° N visible
28 Jul 5.6 23:14:03 19° WSW 23:14:52 20° W 23:18:20 10° NW visible
29 Jul 5.5 20:42:38 15° E 20:45:07 22° ENE 20:48:49 10° N visible
29 Jul 4.2 22:21:45 46° SW 22:22:43 55° W 22:27:28 10° NNW visible
30 Jul 4.2 21:29:27 37° ESE 21:30:59 52° ENE 21:35:41 10° N visible
30 Jul 5.4 23:08:34 21° WSW 23:09:15 22° W 23:12:59 10° NW visible
31 Jul 5.6 20:37:09 14° E 20:39:38 20° ENE 20:43:09 10° NNE visible
31 Jul 4.0 22:16:16 52° SSW 22:17:09 62° WSW 22:21:58 10° NNW visible
01 Aug 4.4 21:23:58 35° ESE 21:25:28 47° ENE 21:30:06 10° N visible
01 Aug 5.3 23:03:05 24° WSW 23:03:39 24° W 23:07:35 10° NW visible
